SCP
0 0 0 0 0 0 0 0 0 0 0 0 0 0 0 0 0 0 0 0 0 0 0 0 0 0 0 0 0 0 0 0 0 0 0 0 0 0 0 0 0 0 0 0 0 0 0 0 0 0 0 0 0 0
0 0 -0 0 0 0 0 0 0 0 0 0 0 0 0 0 0 0 0 0 0 0 0 0 0 0 0 0 0 0 0 0 0 0 0 0 0 0 0 0 0 0 0 0 0 0 0 0 0 0 0 0 0 0
0 0 0 0 0 0 0 0 0 0 0 0 0 0 0 0 0 0 0 0 0 0 0 0 0 0 0 0 0 0 0 0 0 0 0 0 0 0 0 0 0 0 0 0 0 0 0 0 0 0 0 0 0 0
-0 0 0 0 0 0 0 0 -0 0 0 0 0 0 0 0 0 0 0 0 0 0 0 0 0 0 0 0 0 0 0 0 0 0 0 0 0 0 0 0 0 0 0 0 0 0 0 0 0 0 0 0 0 0
-0 0 0 0 0 0 0 0 0 -0 0 0 0 0 0 0 0 0 0 0 0 0 0 0 0 0 0 0 0 0 0 0 0 0 0 0 0 0 0 0 0 0 0 0 0 0 0 0 0 0 0 0 0 0
-0 -0 0 0 0 -0 0 0 0 0 0 0 0 0 0 0 0 0 0 0 0 0 0 0 0 0 0 0 0 0 0 0 0 0 0 0 0 0 0 0 0 0 0 0 0 0 0 0 0 0 0 0 0 0
-0 -0 0 0 0 0 0 0 0 0 0 0 0 0 0 0 0 0 0 0 0 0 0 0 0 0 0 0 0 0 0 0 0 0 0 0 0 0 0 0 0 0 0 0 0 0 0 0 0 0 0 0 0 0
-0 -0 -0 0 0 0 0 0 0 0 0 0 0 0 0 0 0 0 0 0 0 0 0 0 0 0 0 0 0 0 0 0 0 0 0 0 0 0 0 0 0 0 0 0 0 0 0 0 0 0 0 0 0 0
-0 -0 -0 -0 0 0 0 0 0 0 0 0 0 0 0 0 0 0 0 0 0 0 0 0 0 0 0 0 0 0 0 0 0 0 0 0 0 0 0 0 0 0 0 0 0 0 0 0 0 0 0 0 0 0
0 0 0 0 0 0 0 0 0 0 0 0 0 0 0 0 0 0 0 0 0 0 0 0 0 0 0 0 0 0 0 0 0 0 0 0 0 0 0 0 0 0 0 0 0 0 0 0 0 0 0 0 0 0
0 0 0 0 0 0 0 0 0 0 0 0 0 0 0 0 0 0 0 0 0 0 0 0 0 0 0 0 0 0 0 0 0 0 0 0 0 0 0 0 0 0 0 0 0 0 0 0 0 0 0 0 0 0
0 0 0 0 0 0 0 0 0 0 0 0 0 0 0 0 0 0 0 0 0 0 0 0 0 0 0 0 0 0 0 0 0 0 0 0 0 0 0 0 0 0 0 0 0 0 0 0 0 0 0 0 0 0
0 0 0 0 0 0 0 0 0 0 0 0 0 0 0 0 0 0 0 0 0 0 0 0 0 0 0 0 0 0 0 0 0 0 0 0 0 0 0 0 0 0 0 0 0 0 0 0 0 0 0 0 0 0
0 0 0 0 0 0 0 0 0 0 0 0 0 0 0 0 0 0 0 0 0 0 0 0 0 0 0 0 0 0 0 0 0 0 0 0 0 0 0 0 0 0 0 0 0 0 0 0 0 0 0 0 0 0
0 0 0 0 0 0 0 0 0 0 0 0 0 0 0 0 0 0 0 0 0 0 0 0 0 0 0 0 0 0 0 0 0 0 0 0 0 0 0 0 0 0 0 0 0 0 0 0 0 0 0 0 0 0
0 0 0 0 0 0 0 0 0 0 0 0 0 0 0 0 0 0 0 0 0 0 0 0 0 0 0 0 0 0 0 0 0 0 0 0 0 0 0 0 0 0 0 0 0 0 0 0 0 0 0 0 0 0
0 0 -0 0 0 0 0 0 0 0 0 0 0 0 0 0 0 0 0 0 0 0 0 0 0 0 0 0 0 0 0 0 0 0 0 0 0 0 0 0 0 0 0 0 0 0 0 0 0 0 0 0 0 0
0 0 -0 0 0 0 0 0 0 0 0 0 0 0 0 0 0 0 0 0 0 0 0 0 0 0 0 0 0 0 0 0 0 0 0 0 0 0 0 0 0 0 0 0 0 0 0 0 0 0 0 0 0 0
0 0 -0 0 0 0 0 0 0 0 0 0 0 0 0 0 0 0 0 0 0 0 0 0 0 0 0 0 0 0 0 0 0 0 0 0 0 0 0 0 0 0 0 0 0 0 0 0 0 0 0 0 0 0
0 -0 -0 0 0 0 0 0 0 0 0 0 0 0 0 0 0 0 0 0 0 0 0 0 0 0 0 0 0 0 0 0 0 0 0 0 0 0 0 0 0 0 0 0 0 0 0 0 0 0 0 0 0 0
0 0 0 0 0 0 0 0 0 0 0 0 0 0 0 0 0 0 0 0 0 0 0 0 0 0 0 0 0 0 0 0 0 0 0 0 0 0 0 0 0 0 0 0 0 0 0 0 0 0 0 0 0 0
0 0 0 0 0 0 -0 0 0 0 0 0 0 0 0 0 0 0 0 0 0 0 0 0 0 0 0 0 0 0 0 0 0 0 0 0 0 0 0 0 0 0 0 0 0 0 0 0 0 0 0 0 0 0
0 0 0 0 0 0 0 0 0 0 -0 0 0 0 0 0 0 0 0 0 0 0 0 0 0 0 0 0 0 0 0 0 0 0 0 0 0 0 0 0 0 0 0 0 0 0 0 0 0 0 0 0 0 0
0 0 0 0 0 0 0 0 0 0 0 0 0 0 0 0 -0 0 0 0 0 0 0 0 0 0 0 0 0 0 0 0 0 0 0 0 0 0 0 0 0 0 0 0 0 0 0 0 0 0 0 0 0 0
0 0 0 -0 0 -0 -0 -0 -0 -0 0 -0 -0 -0 -0 -0 -0 0 0 0 0 0 0 0 0 0 0 0 0 0 0 0 0 0 0 0 0 0 0 0 0 0 0 0 0 0 0 0 0 0 0 0 0 0
-0 0 0 0 0 0 0 -0 -0 -0 -0 0 -0 -0 -0 -0 0 0 0 0 0 0 0 0 0 0 0 0 0 0 0 0 0 0 0 0 0 0 0 0 0 0 0 0 0 0 0 0 0 0 0 0 0 0
0 0 0 0 0 0 0 -0 -0 -0 -0 -0 0 0 0 0 0 0 0 0 0 0 0 0 0 0 0 0 0 0 0 0 0 0 0 0 0 0 0 0 0 0 0 0 0 0 0 0 0 0 0 0 0 0
0 0 0 0 -0 -0 -0 -0 -0 -0 -0 -0 -0 -0 0 0 0 0 0 0 0 0 0 0 0 0 0 0 0 0 0 0 0 0 0 0 0 0 0 0 0 0 0 0 0 0 0 0 0 0 0 0 0 0
0 0 0 0 0 0 0 0 0 0 0 0 0 0 0 0 0 0 0 0 0 0 0 0 0 0 0 0 0 0 0 0 0 0 0 0 0 0 0 0 0 0 0 0 0 0 0 0 0 0 0 0 0 0
0 0 0 0 0 0 0 0 0 0 0 0 0 0 0 0 0 0 0 0 0 0 0 0 0 0 0 0 0 0 0 0 0 0 0 0 0 0 0 0 0 0 0 0 0 0 0 0 0 0 0 0 0 0
0 0 0 0 0 0 0 0 0 0 0 0 0 0 0 0 0 0 0 0 0 0 0 0 0 0 0 0 0 0 0 0 0 0 0 0 0 0 0 0 0 0 0 0 0 0 0 0 0 0 0 0 0 0
0 0 0 0 0 0 0 0 0 0 0 0 0 0 0 0 0 0 0 0 0 0 0 0 0 0 0 0 0 0 0 0 0 0 0 0 0 0 0 0 0 0 0 0 0 0 0 0 0 0 0 0 0 0
0 0 0 0 0 0 0 0 0 0 0 0 0 0 0 0 0 0 0 0 0 0 0 0 0 0 0 0 0 0 0 0 0 0 0 0 0 0 0 0 0 0 0 0 0 0 0 0 0 0 0 0 0 0
Wind_Speed_500mb
28 28 27 22 15 14 13 12 10 9 16 32 28 29 30 27 26 18 17 14 5 5 5 4 1 3 3 19 19 22 24 11 5 9 11 9 7 13 9 13 16 19 20 13 7 22 39 14 9 42 17 20 12 11
30 30 27 22 15 13 15 14 15 10 19 32 32 33 31 29 27 19 24 13 8 6 7 8 15 13 5 11 11 51 10 18 16 9 6 8 3 4 11 10 4 7 16 14 25 18 4 41 11 28 17 19 17 9
35 32 26 21 20 15 16 15 13 20 21 36 37 35 34 28 28 19 28 14 13 8 4 5 9 9 1 9 26 15 12 34 19 13 10 5 8 7 10 9 8 6 4 8 9 8 11 33 37 31 23 18 15 13
33 23 14 17 16 13 16 16 16 25 7 34 42 33 30 27 27 21 18 28 13 8 6 3 11 12 16 14 21 32 25 27 36 22 7 6 7 5 5 7 6 7 18 11 5 3 2 19 51 32 28 17 14 12
29 13 13 18 10 9 16 20 22 13 23 32 31 30 24 21 18 16 10 14 17 5 7 7 9 13 20 12 26 31 41 47 13 7 5 4 5 8 3 3 6 11 13 16 14 22 10 9 46 31 21 23 20 16
34 18 15 20 9 8 21 25 25 22 17 23 26 27 23 19 17 17 7 9 16 16 3 3 4 11 11 7 27 33 23 23 16 9 6 9 6 3 8 7 5 16 15 12 7 26 12 11 32 35 34 31 25 21
45 31 19 20 13 9 22 29 28 27 27 24 24 23 24 20 19 11 7 1 17 14 1 4 4 3 4 10 11 20 28 18 13 8 6 7 9 5 4 6 3 19 16 16 36 34 21 36 23 33 32 29 24 22
45 50 31 17 19 21 21 26 25 29 28 28 24 24 25 21 17 8 12 5 19 10 4 5 3 5 8 9 6 13 12 11 21 7 7 4 5 3 3 3 17 24 23 29 22 10 15 25 39 33 32 26 28 28
41 40 43 52 39 30 28 21 21 29 35 30 24 23 23 14 9 8 3 8 16 7 8 4 7 5 4 6 6 11 11 6 9 4 5 7 4 1 2 7 25 26 11 24 20 16 23 33 35 32 29 25 25 24
38 43 40 47 52 43 33 32 21 24 35 34 32 8 9 16 19 13 3 1 2 1 3 4 6 5 6 3 4 3 8 1 4 4 7 6 2 7 19 14 21 15 28 34 43 36 43 47 43 41 37 31 24 19
26 29 38 36 39 37 34 18 21 14 29 24 10 7 21 36 10 4 3 4 1 3 4 3 4 7 6 5 4 7 3 1 5 4 5 1 2 7 18 24 28 25 24 23 34 42 39 36 33 31 28 23 18 14
19 18 19 25 30 34 34 20 13 11 23 16 24 34 20 6 7 6 1 3 1 8 3 5 6 10 9 7 7 5 5 4 4 4 6 1 1 15 17 20 23 27 28 33 33 33 30 25 23 18 16 13 9 5
14 15 16 17 24 29 28 21 16 13 23 15 10 9 3 5 5 9 9 4 2 7 1 4 5 7 9 8 6 5 8 1 5 5 5 4 9 14 14 19 21 22 21 22 23 20 19 16 15 13 9 6 4 3
10 9 13 15 16 21 24 20 9 8 5 6 6 9 5 3 4 2 3 5 3 8 4 7 6 5 5 7 1 9 3 4 7 6 6 2 7 10 12 14 15 18 18 19 20 20 18 16 14 13 11 10 9 9
12 10 8 8 12 16 20 22 9 11 10 11 9 5 5 2 3 6 5 4 7 5 3 4 10 8 5 7 4 7 7 0 7 8 2 5 6 6 10 14 16 16 18 18 19 18 16 15 13 13 15 17 16 14
22 24 22 12 11 11 15 20 12 14 11 11 19 5 14 4 5 11 14 8 15 5 1 3 5 6 5 6 6 7 12 10 5 2 8 5 8 10 10 10 12 14 16 17 18 17 17 16 16 15 15 12 9 5
22 38 26 14 14 10 11 15 15 17 13 11 9 19 8 3 2 8 15 18 19 9 4 3 7 3 4 5 3 4 6 2 3 5 10 10 7 7 6 7 8 9 10 12 16 17 19 17 16 14 12 10 8 8
26 26 20 16 11 11 17 20 13 15 15 19 8 12 11 16 10 14 23 23 14 8 7 5 6 7 4 6 1 0 1 2 3 6 9 10 10 7 5 2 1 4 7 9 11 11 12 12 12 13 13 13 12 13
20 19 18 17 16 10 10 16 14 11 13 7 9 18 9 8 17 24 30 18 17 17 7 7 10 5 3 3 2 3 2 4 3 1 1 4 7 6 3 2 2 4 5 6 7 10 12 14 15 15 15 15 16 17
15 14 17 18 17 11 10 15 13 12 7 9 10 13 6 8 16 20 35 26 18 11 14 9 5 3 4 2 3 4 4 5 7 4 1 3 5 6 8 9 10 11 12 12 14 16 17 17 17 16 14 13 14 19
17 18 22 14 20 23 15 11 14 11 7 6 12 10 7 11 14 25 30 29 19 14 5 8 7 7 5 5 4 4 5 6 7 7 6 6 9 13 14 16 16 17 17 17 17 17 16 15 13 13 13 14 16 18
26 17 16 18 16 13 17 20 9 8 7 7 12 17 13 9 16 21 25 22 12 11 7 6 8 5 4 2 2 2 2 3 4 5 6 6 8 12 15 18 18 19 18 18 17 16 16 16 16 16 17 18 21 23
16 12 15 21 11 16 8 15 8 14 6 10 10 7 8 11 18 20 11 10 9 16 14 13 12 10 8 5 3 3 4 5 7 9 11 12 13 14 14 15 15 17 19 20 18 20 20 21 22 22 24 25 26 27
19 15 19 17 26 6 11 15 12 12 10 9 7 6 8 14 26 12 4 5 8 11 11 12 10 6 6 6 6 6 7 8 9 11 14 15 14 15 17 18 21 21 22 23 26 27 27 29 30 30 31 31 33 35
10 29 18 16 23 15 14 12 12 10 6 6 6 7 8 16 6 6 1 7 11 13 12 11 10 10 11 8 8 8 10 13 14 13 16 19 21 21 22 23 23 24 28 30 30 31 31 32 33 35 36 38 39 38
17 26 16 12 10 10 4 8 9 7 5 10 3 11 8 4 7 3 5 5 7 9 10 10 11 10 10 13 13 13 17 19 20 21 20 23 25 28 29 30 29 22 30 30 31 32 32 33 33 33 33 34 37 38
12 10 15 19 9 8 6 3 4 4 7 5 6 10 6 7 4 7 6 5 8 9 10 12 14 15 16 14 17 20 21 22 24 24 23 25 27 30 31 32 29 25 24 24 25 27 28 28 29 32 35 35 35 39
8 16 1 21 7 8 4 2 3 3 4 3 7 5 3 9 7 5 4 9 10 10 14 17 20 22 23 23 23 23 24 27 30 32 33 31 26 25 29 27 26 26 27 29 32 35 36 39 42 43 45 47 46 44
7 24 17 6 5 2 3 3 3 3 8 4 4 5 7 8 8 8 9 11 12 15 16 20 24 24 22 23 23 24 26 29 33 35 33 32 28 26 28 28 30 32 34 37 38 40 41 44 46 48 50 53 51 52
14 29 9 5 3 3 2 7 11 19 20 14 12 13 14 12 9 9 9 14 18 19 22 25 29 30 27 27 25 23 26 31 31 31 35 37 38 38 36 36 38 40 44 49 51 51 51 54 57 59 62 66 67 68
17 16 10 5 7 5 12 30 26 19 14 11 17 20 17 15 11 9 10 17 22 27 30 30 30 29 31 30 34 40 39 32 35 38 44 48 47 44 43 46 48 51 53 57 59 62 63 66 67 69 70 70 69 70
10 7 11 6 7 14 21 16 15 8 7 7 7 8 9 9 9 6 5 14 25 32 29 29 32 23 23 30 34 38 41 43 46 47 50 54 57 58 59 59 60 62 65 67 69 71 71 73 75 74 75 74 72 71
9 8 7 9 10 7 12 24 6 11 10 7 6 6 7 8 13 12 13 7 24 45 47 31 26 33 36 41 45 47 51 54 53 55 58 61 63 64 65 66 68 70 72 73 73 73 72 71 72 72 73 74 74 73
Wind_Direction_500mb
351 347 343 343 334 308 280 279 272 238 220 180 185 194 192 194 185 185 185 172 144 106 81 41 124 180 246 200 174 155 134 216 179 119 168 180 160 210 126 166 175 159 163 197 101 218 253 164 81 179 205 205 194 206
337 331 323 321 317 280 254 252 257 224 200 191 172 178 185 192 187 184 174 183 196 91 114 92 73 57 180 205 153 178 185 152 160 130 174 121 149 142 141 188 268 192 185 172 188 210 226 186 185 204 184 205 221 212
334 328 316 312 309 278 240 237 231 225 167 181 183 184 188 182 184 184 174 158 158 140 101 89 33 25 342 181 186 174 169 173 169 144 141 147 158 140 175 231 109 267 190 173 106 223 207 200 208 213 208 208 211 223
336 328 325 324 307 276 220 212 204 234 85 143 159 164 170 175 183 190 183 182 162 122 107 91 54 34 22 144 188 201 189 163 148 142 101 121 140 179 207 149 152 173 140 159 291 288 324 232 212 215 203 189 182 185
355 1 353 340 305 230 195 192 189 205 139 127 153 160 162 166 168 179 175 221 180 135 168 157 104 40 27 75 131 165 168 175 141 115 98 135 100 110 306 58 213 185 164 182 215 193 165 203 212 199 179 174 167 169
21 39 15 4 12 185 187 182 183 171 177 139 146 163 160 154 145 148 126 224 198 138 141 106 64 58 49 93 88 100 99 112 140 85 98 108 123 197 164 195 243 169 158 120 156 154 170 159 172 186 175 163 151 145
27 29 31 23 42 123 161 166 178 176 172 160 152 148 143 150 162 100 101 153 184 122 55 65 17 57 55 39 45 54 69 63 89 129 108 130 140 170 132 158 170 152 150 139 135 124 118 153 162 160 159 145 137 131
28 37 40 49 58 76 127 169 174 180 168 166 160 147 147 151 140 144 43 88 185 113 110 108 313 36 38 12 23 20 51 40 35 75 81 92 100 2 60 266 141 132 134 152 155 135 155 156 154 150 145 136 136 128
33 41 21 48 75 79 74 103 128 160 155 149 161 148 139 141 107 114 205 20 203 170 147 113 136 184 110 68 37 31 32 49 22 45 49 33 10 72 294 220 161 153 152 144 143 147 146 156 147 150 146 148 151 148
16 41 39 30 44 51 53 73 89 140 154 155 144 116 130 128 126 129 126 357 242 146 91 100 129 119 112 59 41 84 41 78 82 344 24 53 204 75 43 88 130 112 134 135 123 117 131 131 137 138 139 139 142 137
17 27 37 40 33 39 43 68 65 87 155 159 123 81 134 130 119 150 92 166 175 51 33 116 133 120 113 112 133 24 169 8 102 230 138 281 263 80 51 89 112 119 140 135 137 138 147 145 146 146 141 138 135 127
26 32 33 34 31 32 42 64 78 58 169 162 128 121 121 125 78 104 243 333 28 203 198 142 136 114 118 111 100 357 115 31 151 283 83 185 141 62 83 94 103 117 122 127 129 131 133 141 144 148 144 141 141 138
18 29 42 32 21 39 44 54 80 92 102 107 98 93 92 18 109 164 196 192 350 345 187 141 96 121 112 89 61 80 68 162 240 55 202 220 77 63 99 103 105 114 122 124 126 128 131 141 151 162 168 179 197 193
18 30 54 31 19 31 36 38 80 75 117 111 80 56 69 76 16 111 168 200 309 301 294 128 85 85 94 62 161 90 262 58 48 50 239 74 52 47 79 109 128 110 119 127 133 132 136 138 144 148 153 154 155 150
47 87 84 42 31 25 27 30 60 38 61 71 53 63 59 279 14 1 337 345 359 271 310 108 76 86 24 96 49 103 45 185 194 218 140 74 30 85 89 100 105 109 110 117 119 122 125 132 138 141 140 136 135 134
76 70 47 35 21 7 16 24 69 50 61 55 46 61 354 74 6 25 16 9 9 330 200 111 93 75 61 110 100 188 124 199 226 14 343 355 57 69 71 84 97 106 118 124 127 129 131 137 146 148 149 149 149 157
54 49 26 62 46 22 10 21 28 46 51 55 42 32 35 28 5 345 350 346 349 350 65 79 71 98 117 77 66 12 165 239 333 14 33 36 49 61 75 89 102 120 135 148 153 153 152 161 172 180 187 196 217 243
53 34 50 50 64 86 65 32 58 58 57 39 54 2 40 43 1 5 0 2 18 28 28 71 108 60 59 117 335 178 6 349 46 70 72 60 57 57 48 40 128 180 176 177 172 171 180 189 198 206 209 219 234 251
55 45 35 40 44 67 46 37 45 86 53 54 28 11 16 16 22 20 18 27 58 59 78 55 59 62 72 24 332 32 52 21 10 277 299 93 70 50 15 328 284 264 254 242 226 222 219 220 225 227 237 252 266 277
45 37 42 31 20 59 62 38 44 73 68 35 30 5 26 6 4 13 25 36 46 44 40 40 53 56 85 43 343 333 351 360 7 36 136 218 285 313 325 308 293 280 270 259 256 260 258 255 260 269 277 288 299 303
61 54 34 37 51 59 67 37 49 56 62 67 7 26 20 14 20 19 10 16 55 41 59 46 36 19 9 3 4 14 40 23 14 7 341 337 311 309 306 303 298 292 286 283 282 281 280 273 273 283 295 302 308 311
30 28 32 43 57 66 64 36 44 22 29 28 18 11 36 22 7 8 356 44 61 47 49 31 35 19 351 332 314 31 23 356 346 336 323 311 306 304 302 298 295 287 283 282 282 285 287 289 291 293 297 301 304 306
32 36 45 32 67 45 31 16 46 20 40 357 4 34 17 356 352 354 70 60 79 33 29 31 29 28 34 36 28 17 353 336 328 324 317 316 309 299 294 291 288 291 289 288 285 284 287 288 287 289 291 292 293 293
38 46 31 37 26 17 357 26 27 22 35 25 20 15 354 330 343 47 58 22 31 20 19 18 20 27 38 43 43 24 0 343 316 308 308 308 304 292 288 286 289 287 283 281 281 281 283 285 287 288 290 290 291 292
60 13 24 5 16 21 24 3 354 27 38 334 28 357 341 343 44 42 315 321 0 13 14 11 9 7 3 8 355 338 319 315 319 321 300 306 303 297 291 287 282 282 282 280 278 276 278 281 283 285 288 290 292 293
64 16 33 351 354 40 349 14 14 350 350 349 338 317 335 37 56 273 248 312 328 335 345 349 348 345 337 337 333 325 320 320 319 319 309 305 302 300 298 294 291 285 280 280 281 280 280 282 284 287 290 291 294 296
51 344 10 16 1 348 17 3 353 50 20 3 319 342 22 58 280 260 290 309 334 345 350 347 342 338 335 330 322 320 318 317 313 312 309 307 304 300 298 303 306 300 291 287 286 286 287 288 289 290 291 290 293 294
80 24 4 334 5 13 131 59 39 16 270 316 322 354 154 193 237 316 299 323 335 344 347 343 335 328 324 320 316 311 307 308 309 308 308 309 300 295 296 297 296 292 291 290 291 292 294 294 293 293 293 293 294 295
4 349 350 342 337 353 37 144 253 317 331 285 166 269 263 258 285 305 322 325 314 311 317 327 329 326 320 320 317 314 311 311 311 311 312 313 314 310 307 303 302 301 299 297 295 296 296 294 294 294 294 294 297 296
351 349 344 344 41 283 314 348 321 297 292 266 271 283 282 279 279 263 299 322 325 323 318 318 319 321 320 316 316 313 311 313 307 303 306 310 310 306 301 299 298 297 294 293 293 293 291 292 293 292 293 295 296 296
336 343 316 292 265 282 305 315 310 297 274 261 246 252 272 297 296 259 300 330 330 323 319 318 315 312 310 312 314 315 317 319 312 308 308 306 304 302 300 296 293 291 290 289 290 291 292 291 291 291 290 290 291 292
321 342 339 310 303 313 325 334 310 292 277 265 256 260 285 285 275 239 333 12 9 355 336 320 318 318 310 318 318 314 313 312 310 307 303 302 301 301 300 297 295 292 290 289 288 288 288 288 288 289 290 291 293 293
302 322 307 293 300 316 332 339 314 315 265 270 268 275 259 261 255 230 239 327 8 7 359 338 332 329 322 320 320 317 315 311 308 304 302 300 298 297 295 293 292 291 290 289 289 289 289 288 288 289 290 291 293 293
Wind_Speed_850mb
28 28 27 22 15 14 13 12 10 9 16 32 28 29 30 27 26 18 17 14 5 5 5 4 1 3 3 19 19 22 24 11 5 9 11 9 7 13 9 13 16 19 20 13 7 22 39 14 9 42 17 20 12 11
30 30 27 22 15 13 15 14 15 10 19 32 32 33 31 29 27 19 24 13 8 6 7 8 15 13 5 11 11 51 10 18 16 9 6 8 3 4 11 10 4 7 16 14 25 18 4 41 11 28 17 19 17 9
35 32 26 21 20 15 16 15 13 20 21 36 37 35 34 28 28 19 28 14 13 8 4 5 9 9 1 9 26 15 12 34 19 13 10 5 8 7 10 9 8 6 4 8 9 8 11 33 37 31 23 18 15 13
33 23 14 17 16 13 16 16 16 25 7 34 42 33 30 27 27 21 18 28 13 8 6 3 11 12 16 14 21 32 25 27 36 22 7 6 7 5 5 7 6 7 18 11 5 3 2 19 51 32 28 17 14 12
29 13 13 18 10 9 16 20 22 13 23 32 31 30 24 21 18 16 10 14 17 5 7 7 9 13 20 12 26 31 41 47 13 7 5 4 5 8 3 3 6 11 13 16 14 22 10 9 46 31 21 23 20 16
34 18 15 20 9 8 21 25 25 22 17 23 26 27 23 19 17 17 7 9 16 16 3 3 4 11 11 7 27 33 23 23 16 9 6 9 6 3 8 7 5 16 15 12 7 26 12 11 32 35 34 31 25 21
45 31 19 20 13 9 22 29 28 27 27 24 24 23 24 20 19 11 7 1 17 14 1 4 4 3 4 10 11 20 28 18 13 8 6 7 9 5 4 6 3 19 16 16 36 34 21 36 23 33 32 29 24 22
45 50 31 17 19 21 21 26 25 29 28 28 24 24 25 21 17 8 12 5 19 10 4 5 3 5 8 9 6 13 12 11 21 7 7 4 5 3 3 3 17 24 23 29 22 10 15 25 39 33 32 26 28 28
41 40 43 52 39 30 28 21 21 29 35 30 24 23 23 14 9 8 3 8 16 7 8 4 7 5 4 6 6 11 11 6 9 4 5 7 4 1 2 7 25 26 11 24 20 16 23 33 35 32 29 25 25 24
38 43 40 47 52 43 33 32 21 24 35 34 32 8 9 16 19 13 3 1 2 1 3 4 6 5 6 3 4 3 8 1 4 4 7 6 2 7 19 14 21 15 28 34 43 36 43 47 43 41 37 31 24 19
26 29 38 36 39 37 34 18 21 14 29 24 10 7 21 36 10 4 3 4 1 3 4 3 4 7 6 5 4 7 3 1 5 4 5 1 2 7 18 24 28 25 24 23 34 42 39 36 33 31 28 23 18 14
19 18 19 25 30 34 34 20 13 11 23 16 24 34 20 6 7 6 1 3 1 8 3 5 6 10 9 7 7 5 5 4 4 4 6 1 1 15 17 20 23 27 28 33 33 33 30 25 23 18 16 13 9 5
14 15 16 17 24 29 28 21 16 13 23 15 10 9 3 5 5 9 9 4 2 7 1 4 5 7 9 8 6 5 8 1 5 5 5 4 9 14 14 19 21 22 21 22 23 20 19 16 15 13 9 6 4 3
10 9 13 15 16 21 24 20 9 8 5 6 6 9 5 3 4 2 3 5 3 8 4 7 6 5 5 7 1 9 3 4 7 6 6 2 7 10 12 14 15 18 18 19 20 20 18 16 14 13 11 10 9 9
12 10 8 8 12 16 20 22 9 11 10 11 9 5 5 2 3 6 5 4 7 5 3 4 10 8 5 7 4 7 7 0 7 8 2 5 6 6 10 14 16 16 18 18 19 18 16 15 13 13 15 17 16 14
22 24 22 12 11 11 15 20 12 14 11 11 19 5 14 4 5 11 14 8 15 5 1 3 5 6 5 6 6 7 12 10 5 2 8 5 8 10 10 10 12 14 16 17 18 17 17 16 16 15 15 12 9 5
22 38 26 14 14 10 11 15 15 17 13 11 9 19 8 3 2 8 15 18 19 9 4 3 7 3 4 5 3 4 6 2 3 5 10 10 7 7 6 7 8 9 10 12 16 17 19 17 16 14 12 10 8 8
26 26 20 16 11 11 17 20 13 15 15 19 8 12 11 16 10 14 23 23 14 8 7 5 6 7 4 6 1 0 1 2 3 6 9 10 10 7 5 2 1 4 7 9 11 11 12 12 12 13 13 13 12 13
20 19 18 17 16 10 10 16 14 11 13 7 9 18 9 8 17 24 30 18 17 17 7 7 10 5 3 3 2 3 2 4 3 1 1 4 7 6 3 2 2 4 5 6 7 10 12 14 15 15 15 15 16 17
15 14 17 18 17 11 10 15 13 12 7 9 10 13 6 8 16 20 35 26 18 11 14 9 5 3 4 2 3 4 4 5 7 4 1 3 5 6 8 9 10 11 12 12 14 16 17 17 17 16 14 13 14 19
17 18 22 14 20 23 15 11 14 11 7 6 12 10 7 11 14 25 30 29 19 14 5 8 7 7 5 5 4 4 5 6 7 7 6 6 9 13 14 16 16 17 17 17 17 17 16 15 13 13 13 14 16 18
26 17 16 18 16 13 17 20 9 8 7 7 12 17 13 9 16 21 25 22 12 11 7 6 8 5 4 2 2 2 2 3 4 5 6 6 8 12 15 18 18 19 18 18 17 16 16 16 16 16 17 18 21 23
16 12 15 21 11 16 8 15 8 14 6 10 10 7 8 11 18 20 11 10 9 16 14 13 12 10 8 5 3 3 4 5 7 9 11 12 13 14 14 15 15 17 19 20 18 20 20 21 22 22 24 25 26 27
19 15 19 17 26 6 11 15 12 12 10 9 7 6 8 14 26 12 4 5 8 11 11 12 10 6 6 6 6 6 7 8 9 11 14 15 14 15 17 18 21 21 22 23 26 27 27 29 30 30 31 31 33 35
10 29 18 16 23 15 14 12 12 10 6 6 6 7 8 16 6 6 1 7 11 13 12 11 10 10 11 8 8 8 10 13 14 13 16 19 21 21 22 23 23 24 28 30 30 31 31 32 33 35 36 38 39 38
17 26 16 12 10 10 4 8 9 7 5 10 3 11 8 4 7 3 5 5 7 9 10 10 11 10 10 13 13 13 17 19 20 21 20 23 25 28 29 30 29 22 30 30 31 32 32 33 33 33 33 34 37 38
12 10 15 19 9 8 6 3 4 4 7 5 6 10 6 7 4 7 6 5 8 9 10 12 14 15 16 14 17 20 21 22 24 24 23 25 27 30 31 32 29 25 24 24 25 27 28 28 29 32 35 35 35 39
8 16 1 21 7 8 4 2 3 3 4 3 7 5 3 9 7 5 4 9 10 10 14 17 20 22 23 23 23 23 24 27 30 32 33 31 26 25 29 27 26 26 27 29 32 35 36 39 42 43 45 47 46 44
7 24 17 6 5 2 3 3 3 3 8 4 4 5 7 8 8 8 9 11 12 15 16 20 24 24 22 23 23 24 26 29 33 35 33 32 28 26 28 28 30 32 34 37 38 40 41 44 46 48 50 53 51 52
14 29 9 5 3 3 2 7 11 19 20 14 12 13 14 12 9 9 9 14 18 19 22 25 29 30 27 27 25 23 26 31 31 31 35 37 38 38 36 36 38 40 44 49 51 51 51 54 57 59 62 66 67 68
17 16 10 5 7 5 12 30 26 19 14 11 17 20 17 15 11 9 10 17 22 27 30 30 30 29 31 30 34 40 39 32 35 38 44 48 47 44 43 46 48 51 53 57 59 62 63 66 67 69 70 70 69 70
10 7 11 6 7 14 21 16 15 8 7 7 7 8 9 9 9 6 5 14 25 32 29 29 32 23 23 30 34 38 41 43 46 47 50 54 57 58 59 59 60 62 65 67 69 71 71 73 75 74 75 74 72 71
9 8 7 9 10 7 12 24 6 11 10 7 6 6 7 8 13 12 13 7 24 45 47 31 26 33 36 41 45 47 51 54 53 55 58 61 63 64 65 66 68 70 72 73 73 73 72 71 72 72 73 74 74 73
Wind_Direction_850mb
351 347 343 343 334 308 280 279 272 238 220 180 185 194 192 194 185 185 185 172 144 106 81 41 124 180 246 200 174 155 134 216 179 119 168 180 160 210 126 166 175 159 163 197 101 218 253 164 81 179 205 205 194 206
337 331 323 321 317 280 254 252 257 224 200 191 172 178 185 192 187 184 174 183 196 91 114 92 73 57 180 205 153 178 185 152 160 130 174 121 149 142 141 188 268 192 185 172 188 210 226 186 185 204 184 205 221 212
334 328 316 312 309 278 240 237 231 225 167 181 183 184 188 182 184 184 174 158 158 140 101 89 33 25 342 181 186 174 169 173 169 144 141 147 158 140 175 231 109 267 190 173 106 223 207 200 208 213 208 208 211 223
336 328 325 324 307 276 220 212 204 234 85 143 159 164 170 175 183 190 183 182 162 122 107 91 54 34 22 144 188 201 189 163 148 142 101 121 140 179 207 149 152 173 140 159 291 288 324 232 212 215 203 189 182 185
355 1 353 340 305 230 195 192 189 205 139 127 153 160 162 166 168 179 175 221 180 135 168 157 104 40 27 75 131 165 168 175 141 115 98 135 100 110 306 58 213 185 164 182 215 193 165 203 212 199 179 174 167 169
21 39 15 4 12 185 187 182 183 171 177 139 146 163 160 154 145 148 126 224 198 138 141 106 64 58 49 93 88 100 99 112 140 85 98 108 123 197 164 195 243 169 158 120 156 154 170 159 172 186 175 163 151 145
27 29 31 23 42 123 161 166 178 176 172 160 152 148 143 150 162 100 101 153 184 122 55 65 17 57 55 39 45 54 69 63 89 129 108 130 140 170 132 158 170 152 150 139 135 124 118 153 162 160 159 145 137 131
28 37 40 49 58 76 127 169 174 180 168 166 160 147 147 151 140 144 43 88 185 113 110 108 313 36 38 12 23 20 51 40 35 75 81 92 100 2 60 266 141 132 134 152 155 135 155 156 154 150 145 136 136 128
33 41 21 48 75 79 74 103 128 160 155 149 161 148 139 141 107 114 205 20 203 170 147 113 136 184 110 68 37 31 32 49 22 45 49 33 10 72 294 220 161 153 152 144 143 147 146 156 147 150 146 148 151 148
16 41 39 30 44 51 53 73 89 140 154 155 144 116 130 128 126 129 126 357 242 146 91 100 129 119 112 59 41 84 41 78 82 344 24 53 204 75 43 88 130 112 134 135 123 117 131 131 137 138 139 139 142 137
17 27 37 40 33 39 43 68 65 87 155 159 123 81 134 130 119 150 92 166 175 51 33 116 133 120 113 112 133 24 169 8 102 230 138 281 263 80 51 89 112 119 140 135 137 138 147 145 146 146 141 138 135 127
26 32 33 34 31 32 42 64 78 58 169 162 128 121 121 125 78 104 243 333 28 203 198 142 136 114 118 111 100 357 115 31 151 283 83 185 141 62 83 94 103 117 122 127 129 131 133 141 144 148 144 141 141 138
18 29 42 32 21 39 44 54 80 92 102 107 98 93 92 18 109 164 196 192 350 345 187 141 96 121 112 89 61 80 68 162 240 55 202 220 77 63 99 103 105 114 122 124 126 128 131 141 151 162 168 179 197 193
18 30 54 31 19 31 36 38 80 75 117 111 80 56 69 76 16 111 168 200 309 301 294 128 85 85 94 62 161 90 262 58 48 50 239 74 52 47 79 109 128 110 119 127 133 132 136 138 144 148 153 154 155 150
47 87 84 42 31 25 27 30 60 38 61 71 53 63 59 279 14 1 337 345 359 271 310 108 76 86 24 96 49 103 45 185 194 218 140 74 30 85 89 100 105 109 110 117 119 122 125 132 138 141 140 136 135 134
76 70 47 35 21 7 16 24 69 50 61 55 46 61 354 74 6 25 16 9 9 330 200 111 93 75 61 110 100 188 124 199 226 14 343 355 57 69 71 84 97 106 118 124 127 129 131 137 146 148 149 149 149 157
54 49 26 62 46 22 10 21 28 46 51 55 42 32 35 28 5 345 350 346 349 350 65 79 71 98 117 77 66 12 165 239 333 14 33 36 49 61 75 89 102 120 135 148 153 153 152 161 172 180 187 196 217 243
53 34 50 50 64 86 65 32 58 58 57 39 54 2 40 43 1 5 0 2 18 28 28 71 108 60 59 117 335 178 6 349 46 70 72 60 57 57 48 40 128 180 176 177 172 171 180 189 198 206 209 219 234 251
55 45 35 40 44 67 46 37 45 86 53 54 28 11 16 16 22 20 18 27 58 59 78 55 59 62 72 24 332 32 52 21 10 277 299 93 70 50 15 328 284 264 254 242 226 222 219 220 225 227 237 252 266 277
45 37 42 31 20 59 62 38 44 73 68 35 30 5 26 6 4 13 25 36 46 44 40 40 53 56 85 43 343 333 351 360 7 36 136 218 285 313 325 308 293 280 270 259 256 260 258 255 260 269 277 288 299 303
61 54 34 37 51 59 67 37 49 56 62 67 7 26 20 14 20 19 10 16 55 41 59 46 36 19 9 3 4 14 40 23 14 7 341 337 311 309 306 303 298 292 286 283 282 281 280 273 273 283 295 302 308 311
30 28 32 43 57 66 64 36 44 22 29 28 18 11 36 22 7 8 356 44 61 47 49 31 35 19 351 332 314 31 23 356 346 336 323 311 306 304 302 298 295 287 283 282 282 285 287 289 291 293 297 301 304 306
32 36 45 32 67 45 31 16 46 20 40 357 4 34 17 356 352 354 70 60 79 33 29 31 29 28 34 36 28 17 353 336 328 324 317 316 309 299 294 291 288 291 289 288 285 284 287 288 287 289 291 292 293 293
38 46 31 37 26 17 357 26 27 22 35 25 20 15 354 330 343 47 58 22 31 20 19 18 20 27 38 43 43 24 0 343 316 308 308 308 304 292 288 286 289 287 283 281 281 281 283 285 287 288 290 290 291 292
60 13 24 5 16 21 24 3 354 27 38 334 28 357 341 343 44 42 315 321 0 13 14 11 9 7 3 8 355 338 319 315 319 321 300 306 303 297 291 287 282 282 282 280 278 276 278 281 283 285 288 290 292 293
64 16 33 351 354 40 349 14 14 350 350 349 338 317 335 37 56 273 248 312 328 335 345 349 348 345 337 337 333 325 320 320 319 319 309 305 302 300 298 294 291 285 280 280 281 280 280 282 284 287 290 291 294 296
51 344 10 16 1 348 17 3 353 50 20 3 319 342 22 58 280 260 290 309 334 345 350 347 342 338 335 330 322 320 318 317 313 312 309 307 304 300 298 303 306 300 291 287 286 286 287 288 289 290 291 290 293 294
80 24 4 334 5 13 131 59 39 16 270 316 322 354 154 193 237 316 299 323 335 344 347 343 335 328 324 320 316 311 307 308 309 308 308 309 300 295 296 297 296 292 291 290 291 292 294 294 293 293 293 293 294 295
4 349 350 342 337 353 37 144 253 317 331 285 166 269 263 258 285 305 322 325 314 311 317 327 329 326 320 320 317 314 311 311 311 311 312 313 314 310 307 303 302 301 299 297 295 296 296 294 294 294 294 294 297 296
351 349 344 344 41 283 314 348 321 297 292 266 271 283 282 279 279 263 299 322 325 323 318 318 319 321 320 316 316 313 311 313 307 303 306 310 310 306 301 299 298 297 294 293 293 293 291 292 293 292 293 295 296 296
336 343 316 292 265 282 305 315 310 297 274 261 246 252 272 297 296 259 300 330 330 323 319 318 315 312 310 312 314 315 317 319 312 308 308 306 304 302 300 296 293 291 290 289 290 291 292 291 291 291 290 290 291 292
321 342 339 310 303 313 325 334 310 292 277 265 256 260 285 285 275 239 333 12 9 355 336 320 318 318 310 318 318 314 313 312 310 307 303 302 301 301 300 297 295 292 290 289 288 288 288 288 288 289 290 291 293 293
302 322 307 293 300 316 332 339 314 315 265 270 268 275 259 261 255 230 239 327 8 7 359 338 332 329 322 320 320 317 315 311 308 304 302 300 298 297 295 293 292 291 290 289 289 289 289 288 288 289 290 291 293 293